Change the Weather History Date:

Monday, September 2, 2013

  Actual Average Record
Temperature  
Mean Temperature 74 °F -  
Max Temperature 84 °F 79 °F 99 °F (1953)
Min Temperature 64 °F 55 °F 39 °F (1967)
Cooling Degree Days 9    
Growing Degree Days 24 (Base 50)    
Moisture  
Dew Point 65 °F    
Average Humidity 78    
Maximum Humidity 94    
Minimum Humidity 52    
Precipitation  
Precipitation 0.00 in - - ()
Sea Level Pressure  
Sea Level Pressure 29.78 in    
Wind  
Wind Speed 5 mph (South)    
Max Wind Speed 13 mph    
Max Gust Speed 17 mph    
Visibility 10 miles    
Events Rain , Thunderstorm    
Averages and records for this station are not official NWS values.
T = Trace of Precipitation, MM = Missing Value Source: NWS Daily Summary

Daily Weather History Graph

Daily Weather History Graph

Search for Another Location

Airport or City:

Trip Planner

Search our weather history database for the weather conditions in past years. The results will help you decide how hot, cold, wet, or windy it might be!

Date:

Astronomy

Sep. 02, 2013 Rise Set
Actual Time 6:37 AM EDT 7:42 PM EDT
Civil Twilight 6:08 AM EDT 8:11 PM EDT
Nautical Twilight 5:33 AM EDT 8:46 PM EDT
Astronomical Twilight 4:57 AM EDT 9:22 PM EDT
Moon 3:49 AM EDT 5:56 PM EDT
Length of Visible Light 14h 03m
Length of Day
13h 05m
Waning Crescent, 8% of the Moon is Illuminated
Sep 2
Waning Crescent
Sep 5
New
Sep 12
First Quarter
Sep 19
Full
Sep 26
Last Quarter

Hourly Weather History & Observations

Time (EDT) Temp. Heat Index Dew Point Humidity Pressure Visibility Wind Dir Wind Speed Gust Speed Precip Events Conditions
12:54 AM 68.0 °F - 64.9 °F 90% 29.81 in 10.0 mi Calm Calm - N/A   Mostly Cloudy
1:54 AM 68.0 °F - 66.0 °F 93% 29.80 in 10.0 mi South 6.9 mph - N/A   Overcast
2:54 AM 68.0 °F - 66.0 °F 93% 29.80 in 10.0 mi South 3.5 mph - N/A   Overcast
3:54 AM 69.1 °F - 66.0 °F 90% 29.79 in 10.0 mi SSE 6.9 mph - N/A   Overcast
4:54 AM 68.0 °F - 66.0 °F 93% 29.78 in 10.0 mi SSE 4.6 mph - N/A   Overcast
5:54 AM 68.0 °F - 66.0 °F 93% 29.78 in 10.0 mi SE 5.8 mph - N/A   Overcast
6:11 AM 68.0 °F - 66.2 °F 94% 29.77 in 10.0 mi SE 4.6 mph - N/A   Overcast
6:18 AM 69.8 °F - 66.2 °F 88% 29.77 in 10.0 mi SE 3.5 mph - N/A   Overcast
6:54 AM 69.1 °F - 66.0 °F 90% 29.79 in 10.0 mi SSE 3.5 mph - N/A   Overcast
7:54 AM 70.0 °F - 66.9 °F 90% 29.79 in 10.0 mi SSE 6.9 mph - N/A   Scattered Clouds
8:46 AM 71.6 °F - 66.2 °F 83% 29.77 in 10.0 mi ESE 8.1 mph - N/A   Mostly Cloudy
8:54 AM 71.1 °F - 68.0 °F 90% 29.79 in 10.0 mi ESE 8.1 mph - N/A   Overcast
9:27 AM 73.4 °F - 69.8 °F 88% 29.76 in 10.0 mi South 4.6 mph - N/A   Scattered Clouds
9:54 AM 77.0 °F - 69.1 °F 76% 29.78 in 10.0 mi ESE 5.8 mph - N/A   Clear
10:54 AM 80.1 °F 83.2 °F 70.0 °F 71% 29.77 in 10.0 mi Variable 3.5 mph - N/A   Partly Cloudy
11:54 AM 82.0 °F 84.9 °F 68.0 °F 62% 29.77 in 10.0 mi Variable 4.6 mph - N/A   Mostly Cloudy
12:54 PM 82.9 °F 85.0 °F 66.0 °F 56% 29.75 in 10.0 mi Variable 5.8 mph - N/A   Scattered Clouds
1:54 PM 82.9 °F 85.8 °F 68.0 °F 60% 29.73 in 10.0 mi Calm Calm - 0.00 in   Scattered Clouds
2:24 PM 82.4 °F 84.6 °F 66.2 °F 58% 29.72 in 10.0 mi Variable 3.5 mph - N/A Thunderstorm Scattered Clouds
2:54 PM 82.0 °F 85.5 °F 69.1 °F 65% 29.73 in 10.0 mi Calm Calm - N/A Thunderstorm Mostly Cloudy
3:04 PM 82.4 °F 86.3 °F 69.8 °F 66% 29.72 in 10.0 mi West 4.6 mph - 0.00 in Rain Light Rain
3:54 PM 82.9 °F 85.8 °F 68.0 °F 60% 29.73 in 10.0 mi Calm Calm - 0.00 in   Clear
4:54 PM 82.0 °F 83.1 °F 63.0 °F 52% 29.73 in 10.0 mi Variable 6.9 mph 17.3 mph N/A   Clear
5:54 PM 79.0 °F - 66.0 °F 64% 29.74 in 10.0 mi West 8.1 mph 17.3 mph N/A   Scattered Clouds
6:54 PM 77.0 °F - 66.0 °F 69% 29.75 in 10.0 mi West 4.6 mph - N/A   Partly Cloudy
7:54 PM 73.0 °F - 66.9 °F 81% 29.76 in 10.0 mi NNW 8.1 mph - N/A   Scattered Clouds
8:54 PM 70.0 °F - 66.0 °F 87% 29.78 in 10.0 mi NNW 9.2 mph - N/A   Scattered Clouds
9:54 PM 69.1 °F - 62.1 °F 78% 29.80 in 10.0 mi NNW 10.4 mph - N/A   Mostly Cloudy
10:04 PM 68.0 °F - 60.8 °F 78% 29.80 in 10.0 mi NNW 11.5 mph - N/A   Scattered Clouds
10:16 PM 66.2 °F - 59.0 °F 78% 29.81 in 10.0 mi NNW 12.7 mph - N/A   Mostly Cloudy
10:30 PM 66.2 °F - 60.8 °F 83% 29.81 in 10.0 mi NNW 9.2 mph - N/A   Mostly Cloudy
10:54 PM 66.0 °F - 59.0 °F 78% 29.83 in 10.0 mi NNW 8.1 mph - N/A   Mostly Cloudy
11:13 PM 66.2 °F - 57.2 °F 73% 29.83 in 10.0 mi NNW 8.1 mph - N/A   Overcast
11:54 PM 64.9 °F - 57.9 °F 78% 29.85 in 10.0 mi WNW 3.5 mph - N/A   Overcast